Home   Weather   Ljubljana   Past weeks

Flag for Slovenia Past Weather in Ljubljana, Slovenia — Yesterday and Last 2 Weeks

46 °F

Light rain. Low clouds.

Feels Like: 46 °F
Forecast: 32 / 52 °F
Wind: 1 mph from Northeast

Location: Ljubljana / Bezigrad

Current Time: Oct 21, 2016 at 1:12:31 PM

Latest Report: Oct 21, 2016 at 12:00 PM

Visibility: 9 mi

Pressure: 29.99 "Hg

Humidity: 87%

Dew Point: 42 °F

Location of LjubljanaLocation

Past Weather in Ljubljana — Graph


Ljubljana Temperature Yesterday

Maximum temperature yesterday: 50 °F (at 12:00 AM)
Minimum temperature yesterday: 45 °F (at 11:00 PM)
Average temperature yesterday: 47 °F

High & Low Weather Summary for the Past Weeks

High62 °F (Oct 16, 4:00 PM)98% (Oct 17, 7:00 AM)30.32 "Hg (Oct 17, 7:00 AM)
Low36 °F (Oct 13, 5:00 AM)33% (Oct 6, 2:00 PM)29.92 "Hg (Oct 11, 5:00 PM)
Average49 °F84%30.10 "Hg
* Reported Oct 6 11:00 AM — Oct 21 11:00 AM, Ljubljana, Weather by CustomWeather, © 2016

Note: Actual official high and low records may vary slightly from our data, if they occured in-between our weather recording intervals... More about our weather records


Ljubljana Weather History for the Previous 24 Hours

Scroll right to see more
Time TempWeatherWind HumidityBarometerVisibility
11:00 AM
Fri, Oct 21
45 °FLow clouds.1 mph86%29.99 "Hg9 mi
10:00 AM45 °FLow clouds.1 mph88%29.98 "Hg9 mi
9:00 AM44 °FLight rain. Low clouds.2 mph90%29.98 "Hg7 mi
8:00 AM44 °FLight rain. Low clouds.1 mph92%29.98 "Hg6 mi
7:00 AM44 °FRain. Low clouds.2 mph94%29.98 "Hg4 mi
6:00 AM44 °FRain. Low clouds.2 mph94%29.97 "Hg2 mi
5:00 AM44 °FRain. Low clouds.2 mph94%29.98 "Hg2 mi
4:00 AM44 °FQuite cool.1 mph93%29.98 "HgN/A
3:00 AM45 °FCool.1 mph95%29.99 "HgN/A
2:00 AM45 °FQuite cool.1 mph93%30.01 "HgN/A
1:00 AM45 °FQuite cool.1 mph93%30.01 "HgN/A
12:00 AM45 °FCool.No wind93%30.01 "HgN/A
11:00 PM
Thu, Oct 20
45 °FCool.1 mph93%30.02 "HgN/A
10:00 PM46 °FLight rain. Overcast.1 mph93%30.03 "Hg5 mi
9:00 PM46 °FRain. Overcast.No wind93%30.03 "Hg5 mi
8:00 PM46 °FRain. Low clouds.1 mph92%30.02 "Hg2 mi
7:00 PM46 °FLight rain. Low clouds.1 mph93%30.03 "Hg2 mi
6:00 PM46 °FLight rain. Low clouds.1 mph90%30.02 "Hg2 mi
5:00 PM46 °FRain. Low clouds.1 mph90%30.02 "Hg2 mi
4:00 PM46 °FRain. Low clouds.No wind90%30.01 "Hg2 mi
3:00 PM46 °FLight rain. Low clouds.1 mph90%30.01 "Hg2 mi
2:00 PM46 °FRain. Overcast.1 mph92%30.01 "Hg5 mi
1:00 PM46 °FRain. Low clouds.1 mph91%30.01 "Hg5 mi
Weather by CustomWeather, © 2016

See weather overviewHow to use our weather pages